Temp
25 25 25 29 32 34 35 37 39 37 37 38 38 37 38 38 37 36 35 35 34 32 25 25 26 25 25 25 24 24 23 23 22 22 21 20 20 20 19 19 18 18 18 18 18 18 18 18 18
26 27 29 33 32 34 37 39 37 38 38 38 38 38 37 37 39 39 37 34 34 31 26 24 26 26 25 25 24 24 23 23 22 22 21 20 20 19 18 18 18 18 18 18 18 18 18 18 18
27 29 32 34 34 36 36 36 38 38 38 38 38 38 38 37 38 37 35 34 33 31 28 25 27 26 26 25 25 24 23 23 22 22 21 20 20 19 18 18 18 18 18 18 18 18 18 18 18
29 31 33 33 35 38 38 38 38 37 38 38 38 37 38 37 37 36 34 34 33 32 29 26 26 26 26 25 25 25 24 23 22 22 21 20 19 19 18 18 18 18 18 18 18 18 18 18 18
30 34 33 34 35 37 38 38 38 37 38 38 38 37 37 36 35 34 34 33 33 33 31 27 26 26 26 26 25 25 24 23 23 22 21 20 19 19 18 18 18 17 18 18 18 18 18 18 18
31 34 33 34 36 38 38 38 38 38 38 38 37 37 37 36 36 35 34 33 33 33 31 30 27 25 26 26 25 25 24 23 23 22 21 20 20 19 18 18 18 18 18 17 17 17 18 17 17
32 34 33 35 35 36 37 38 38 37 38 37 38 36 38 38 35 34 34 33 33 33 31 30 25 25 24 25 24 24 24 23 23 22 21 20 20 19 18 18 18 18 17 17 17 17 17 17 17
33 33 33 35 35 35 38 37 38 37 37 38 37 35 36 37 35 35 35 35 34 33 32 30 28 25 22 22 22 23 24 23 22 22 21 20 19 19 19 19 18 18 17 17 17 16 16 16 16
34 32 32 34 34 36 38 37 38 37 36 37 37 37 37 36 36 35 36 36 35 34 33 31 30 28 25 24 23 21 22 22 22 21 20 20 19 21 21 20 19 19 18 17 16 16 16 16 16
31 32 33 35 36 36 37 37 37 36 36 36 36 37 37 36 36 36 36 36 36 35 34 32 30 29 27 26 25 22 22 21 21 21 21 20 21 22 22 21 19 19 19 18 17 17 17 16 18
32 31 34 35 36 37 36 37 37 36 35 36 36 36 37 37 36 36 36 36 36 36 35 33 30 29 28 27 27 24 24 23 23 22 22 22 22 22 22 22 21 19 18 18 19 18 18 19 20
32 33 34 34 35 36 36 36 36 36 36 37 36 36 36 36 36 36 36 36 36 36 36 34 31 28 27 27 27 26 25 25 24 24 22 21 21 21 21 22 22 20 19 20 19 19 20 20 20
33 33 34 35 35 35 35 35 35 35 36 36 36 36 35 36 36 36 35 35 35 35 35 34 31 27 25 25 27 26 26 25 25 24 23 21 22 22 22 22 20 20 20 20 19 19 19 20 19
34 34 34 34 34 35 34 34 35 35 36 36 36 35 36 36 36 36 35 35 34 34 34 32 31 27 25 24 25 25 25 25 24 24 23 22 21 21 21 21 20 19 20 19 18 18 18 19 20
33 32 33 34 34 34 34 33 33 35 36 35 35 36 36 36 36 36 35 34 33 33 33 31 31 27 24 23 24 24 24 24 24 23 23 22 20 20 20 21 21 20 18 17 17 17 18 19 20
31 32 31 33 33 34 33 31 33 35 35 35 36 36 36 35 36 35 34 34 33 32 32 30 30 27 24 23 23 23 24 23 24 23 23 21 20 19 20 19 19 19 17 17 16 17 18 18 18
30 29 30 31 34 33 33 32 34 35 35 34 35 35 35 35 35 34 34 34 33 32 31 29 28 26 24 23 23 23 24 23 23 23 23 22 21 20 19 19 18 17 16 16 16 16 17 17 18
28 29 30 30 33 33 33 33 34 35 34 34 35 35 34 35 35 35 34 34 31 30 29 27 25 25 23 23 22 23 23 23 23 23 23 22 21 20 20 19 17 16 16 16 16 16 18 19 17
30 30 31 32 33 32 32 33 34 34 34 34 35 35 34 34 35 35 34 30 28 27 25 24 24 24 23 23 23 24 24 23 23 23 22 21 20 20 19 18 16 16 16 16 16 17 17 17 16
29 29 30 32 33 33 33 32 33 34 33 34 34 35 34 34 35 35 33 28 27 25 24 23 23 22 22 23 24 25 24 24 24 24 23 21 20 19 18 17 16 16 16 16 16 17 16 16 16
29 29 29 30 31 32 32 31 32 33 34 34 34 34 34 34 34 35 32 28 26 25 24 23 22 21 22 24 24 23 23 23 23 23 22 21 19 18 18 17 16 16 16 18 17 17 16 17 16
28 30 30 30 30 29 32 30 31 32 33 33 34 34 34 34 35 35 32 28 26 25 23 22 22 21 23 22 23 23 24 25 24 23 23 21 20 19 18 17 17 17 18 18 17 16 16 16 17
29 31 30 30 29 29 30 29 30 32 32 33 33 34 34 34 35 35 31 28 26 24 23 22 22 22 21 22 23 22 23 24 23 23 21 20 18 18 18 17 18 17 16 17 16 16 16 17 17
30 30 30 30 29 28 29 29 30 31 32 33 33 34 35 35 35 33 30 27 26 24 23 22 22 22 21 22 22 21 22 22 22 22 21 19 17 17 18 18 17 17 17 16 17 17 17 17 17
30 29 27 27 28 28 30 29 30 32 32 33 33 34 35 35 33 31 28 27 26 25 24 23 22 22 21 21 21 21 21 21 21 21 19 19 18 17 18 18 17 17 17 17 17 17 17 17 17
28 29 28 26 27 29 31 29 31 33 33 33 34 34 35 33 32 30 29 28 26 25 24 24 22 22 22 22 22 21 21 21 21 20 19 18 19 18 18 19 18 18 18 19 18 17 17 17 17
28 29 30 29 31 31 32 33 33 33 33 32 33 34 34 32 31 30 29 28 26 25 24 24 23 23 22 22 22 21 21 21 21 20 18 19 18 18 19 19 18 18 18 18 17 17 18 17 17
28 31 28 30 27 28 31 31 32 32 33 33 33 34 33 32 30 30 29 28 26 25 24 24 23 23 23 22 22 22 21 21 21 19 18 19 19 20 19 18 18 19 20 19 18 18 18 17 17
28 29 29 29 30 29 29 31 34 33 33 33 34 34 33 31 30 30 29 27 26 25 25 24 24 23 23 23 22 22 21 21 21 19 19 18 19 20 19 19 19 19 18 18 17 18 18 17 17
29 29 29 29 28 30 30 31 33 33 33 34 35 34 34 31 31 30 29 28 27 26 25 24 24 24 23 23 23 22 21 21 20 20 19 18 19 20 20 20 20 20 19 18 18 18 19 19 19
Height
784 783 785 783 789 769 764 749 722 735 740 725 725 732 733 728 740 757 737 739 742 748 752 755 760 763 768 770 773 776 779 781 783 785 787 789 791 792 793 795 796 796 797 797 797 797 798 798 798
785 784 783 772 785 773 747 724 736 727 725 725 725 727 732 739 722 724 731 740 743 748 752 755 757 762 766 770 772 775 778 780 783 785 787 789 790 791 793 794 795 796 797 797 797 797 798 798 798
784 781 774 768 766 759 752 739 730 723 725 728 729 724 728 733 727 729 735 740 743 748 751 754 756 761 765 768 770 773 776 779 781 784 786 788 789 790 791 793 794 795 795 796 796 796 796 796 796
782 778 771 774 759 733 730 720 717 727 721 723 724 735 722 729 730 734 738 741 744 748 751 753 755 759 762 765 768 771 774 777 779 781 783 786 788 789 790 791 792 792 793 793 794 794 794 794 794
778 766 772 765 755 732 722 719 717 728 725 726 723 736 729 728 735 737 738 741 743 746 751 754 755 757 760 762 765 768 771 774 777 779 782 784 786 787 788 789 790 790 791 791 791 790 791 792 792
776 765 773 767 748 726 721 718 722 726 723 720 731 732 727 727 731 736 737 740 741 743 749 752 753 756 757 760 763 766 770 773 776 778 780 782 784 785 786 787 787 788 788 788 788 788 787 788 789
773 763 767 753 746 735 727 714 724 725 721 723 718 740 723 720 731 735 737 737 739 740 745 749 751 753 756 759 762 764 767 771 773 776 777 780 782 783 783 784 785 785 785 785 785 784 785 784 785
765 762 763 750 752 744 718 721 718 724 727 716 724 742 732 720 729 731 731 732 734 736 739 745 749 752 754 757 760 762 765 769 771 773 775 776 779 779 779 780 780 781 782 782 782 781 781 781 781
756 771 766 754 748 735 715 725 713 718 731 726 724 722 720 723 725 728 727 726 728 729 733 738 742 747 752 754 758 761 764 766 769 770 772 774 776 776 775 774 775 776 778 778 779 779 778 778 777
764 764 755 734 728 731 719 718 719 724 727 730 726 717 714 720 723 723 722 719 719 719 725 730 736 740 746 748 753 758 761 764 766 768 770 770 771 771 771 772 773 774 775 775 775 775 774 774 775
749 755 738 727 720 719 723 718 712 723 731 720 723 718 714 718 719 719 718 715 713 714 715 721 728 734 740 742 746 751 756 759 761 764 766 766 767 767 767 767 767 769 771 771 769 770 771 770 770
750 736 735 729 722 721 721 715 718 720 720 712 714 714 714 716 716 713 713 712 708 706 706 712 722 727 734 737 741 744 748 753 755 758 761 763 764 764 764 764 764 765 768 767 768 768 768 767 767
733 731 727 723 722 719 716 718 717 716 712 710 711 713 712 712 709 708 707 705 705 703 703 707 715 721 726 732 734 738 741 746 750 753 756 759 759 759 760 760 761 763 763 763 765 765 765 765 765
722 721 720 718 718 716 721 715 713 713 709 706 706 707 705 704 703 701 701 700 701 701 700 706 709 715 720 726 729 731 735 738 744 748 750 753 756 756 756 757 758 759 760 761 761 762 762 762 761
719 725 717 713 713 713 712 716 715 705 703 701 701 700 697 699 698 696 695 695 697 697 700 704 706 711 716 723 728 731 734 738 739 743 745 749 752 753 753 753 753 755 757 757 758 759 760 760 758
727 722 728 710 710 708 717 717 707 698 697 696 692 691 691 696 691 691 691 690 692 694 696 700 703 708 715 720 725 729 731 733 736 739 741 744 747 749 749 750 750 752 753 753 754 756 757 757 758
721 726 717 718 701 704 707 704 699 693 692 694 688 687 691 689 686 686 686 685 687 689 693 696 701 706 712 718 724 728 730 732 733 736 737 740 743 745 745 746 747 748 749 749 750 752 754 754 755
718 718 719 717 703 697 700 693 684 686 690 691 682 682 687 682 680 679 678 679 683 687 691 694 701 705 710 716 722 726 728 731 731 733 734 737 739 740 741 742 743 745 744 745 747 749 750 749 753
701 706 704 696 685 698 696 688 680 685 686 683 678 676 679 678 673 671 671 680 684 687 692 696 700 703 709 715 719 721 724 727 728 730 732 734 736 737 738 739 740 741 741 742 744 746 748 749 751
706 707 700 691 681 685 685 686 677 673 678 676 672 667 667 671 665 666 668 679 684 688 692 696 698 703 708 713 716 717 721 722 724 726 728 731 733 734 734 736 736 737 738 739 742 744 745 747 748
695 700 700 699 689 679 684 687 678 669 665 667 667 663 662 661 663 660 665 677 684 689 692 695 698 703 707 711 714 718 720 721 723 725 726 727 730 731 732 733 733 734 736 737 739 741 743 744 745
692 681 691 697 701 708 684 699 671 669 667 662 658 653 653 654 651 651 661 675 684 688 692 694 699 704 707 711 714 716 716 716 717 720 722 725 728 729 729 730 731 732 733 734 736 738 739 741 742
668 678 683 689 701 700 691 700 665 667 667 659 652 648 648 646 643 645 661 673 681 687 691 695 700 704 708 710 712 715 715 715 718 720 723 724 726 727 727 728 729 730 732 733 735 736 737 738 740
668 680 682 682 691 703 685 695 668 667 656 650 645 640 637 635 636 646 661 673 680 686 691 696 701 704 707 710 712 714 715 717 718 719 720 723 724 724 725 726 728 729 730 732 733 734 736 737 738
665 681 702 708 694 673 673 683 658 648 642 640 642 636 628 625 638 652 663 671 678 683 690 696 700 704 706 710 712 714 716 718 719 720 721 722 722 723 724 725 726 728 729 731 732 733 735 736 736
658 665 675 694 686 678 660 676 653 629 625 626 628 623 624 634 642 653 662 668 676 682 689 694 699 702 705 709 712 714 716 716 717 719 720 721 721 723 724 724 726 728 729 729 731 733 734 735 735
650 654 638 665 648 658 642 628 624 625 625 626 624 624 628 635 644 652 659 668 675 681 688 692 696 700 704 708 711 713 715 717 717 718 720 720 721 722 724 725 727 728 729 731 732 733 734 734 734
636 631 670 657 681 671 646 643 636 631 624 621 623 621 624 636 645 651 659 667 675 682 687 692 696 700 704 707 710 711 715 716 717 718 720 720 721 721 723 726 727 727 729 731 733 733 734 735 736
634 634 642 647 644 660 666 647 607 618 618 614 611 613 621 634 643 650 657 667 674 681 686 691 695 699 703 706 709 711 714 715 716 718 720 721 721 723 724 726 727 728 730 732 734 734 735 736 738
623 627 635 643 655 640 642 642 611 614 611 603 605 609 616 632 639 647 656 665 673 679 685 690 694 697 702 705 708 710 714 714 717 719 720 721 722 722 723 725 726 727 730 733 734 734 736 737 738
Wind_Speed
10 12 7 8 7 7 12 17 9 4 6 1 4 8 11 12 10 5 7 7 13 20 22 30 28 25 23 20 17 15 13 11 9 8 7 7 6 6 6 7 6 5 4 4 4 4 4 5 6
12 10 9 7 8 13 14 10 8 6 6 5 8 8 11 8 9 5 10 12 12 19 21 27 29 27 24 21 18 16 15 12 10 8 8 8 7 7 7 8 8 7 7 7 7 6 7 6 6
10 12 8 7 13 14 5 3 13 6 4 7 5 3 7 3 5 7 9 11 15 19 20 24 29 28 25 23 21 19 17 14 12 10 9 9 8 9 9 10 10 10 10 10 10 10 9 10 9
11 10 8 11 18 13 10 3 3 3 9 6 9 10 6 8 2 7 3 11 13 17 19 22 27 30 27 26 23 20 19 17 15 12 11 10 10 11 11 11 12 11 13 13 14 13 12 12 13
18 9 13 15 18 18 2 12 6 7 10 4 2 12 1 13 6 2 3 9 11 14 16 18 27 31 30 28 26 23 21 19 17 14 12 11 10 10 11 13 14 13 13 14 17 17 15 14 13
9 12 14 15 20 18 6 7 9 10 10 10 2 9 5 9 6 4 1 7 11 12 16 17 21 30 32 31 28 25 22 20 18 15 13 12 11 11 12 14 13 13 13 13 13 14 15 15 13
17 14 16 19 19 13 7 10 11 10 10 6 3 7 6 6 7 2 2 5 10 13 16 19 18 27 34 32 30 27 24 21 19 16 14 14 14 13 13 14 13 13 13 13 13 14 14 13 13
15 15 23 19 17 18 12 3 11 6 10 9 2 10 14 4 4 6 7 8 11 15 18 21 19 19 25 25 31 29 25 22 20 18 16 15 16 17 17 17 17 15 13 13 12 13 14 15 16
20 16 17 21 21 18 16 9 12 3 11 13 12 15 14 16 12 15 15 14 13 14 19 21 23 21 23 23 22 28 25 23 21 18 17 15 15 16 16 19 15 14 14 15 12 13 14 16 18
20 17 25 21 19 18 23 13 15 13 10 15 16 19 17 15 11 16 18 18 22 19 20 23 24 24 23 23 22 19 21 20 19 17 16 15 15 13 13 8 10 16 19 20 18 16 14 15 15
25 24 24 24 20 21 25 27 21 18 24 17 18 21 15 17 18 19 22 26 27 26 18 23 24 25 25 23 23 19 19 20 19 18 17 16 14 13 13 13 15 15 13 13 14 14 13 13 14
29 29 27 27 28 26 28 26 23 24 23 21 19 20 18 18 19 19 23 28 31 32 25 18 25 27 26 24 24 22 20 21 18 17 16 15 14 13 12 13 12 8 12 13 11 12 13 12 12
31 29 30 29 31 30 28 30 31 27 26 24 19 22 21 19 21 24 27 29 30 30 28 13 25 28 29 28 25 24 22 20 17 16 14 14 15 13 13 12 10 14 14 13 14 14 14 14 14
31 32 32 32 32 31 29 32 28 27 27 28 21 23 23 21 21 23 26 26 25 25 20 15 24 30 29 29 25 26 22 20 19 16 14 14 15 13 13 12 13 15 15 14 13 15 15 17 15
33 34 34 34 32 31 27 36 34 28 29 27 25 24 23 19 22 21 26 22 22 20 16 16 21 28 27 27 27 22 20 19 18 15 13 13 14 13 13 14 14 15 14 12 13 13 14 16 15
33 33 30 32 32 30 24 33 27 28 27 27 22 22 16 21 23 27 26 24 20 19 17 16 21 25 25 25 25 23 21 19 16 14 12 13 14 14 14 15 16 15 13 13 13 14 16 16 14
26 28 37 31 29 27 29 38 28 27 26 28 26 17 17 22 22 22 23 24 18 17 15 16 20 22 24 23 22 21 17 16 14 12 12 13 14 14 15 16 15 15 14 13 14 16 16 17 11
32 32 31 32 29 28 32 35 28 23 23 28 24 20 21 24 22 24 23 17 9 12 11 14 19 20 23 21 20 19 16 14 12 12 11 11 13 14 15 16 14 14 12 12 15 15 14 12 9
33 25 31 32 29 30 32 34 24 22 26 29 25 20 22 23 24 23 17 4 7 7 11 15 18 19 22 21 21 19 17 13 12 11 10 11 11 14 13 13 14 13 12 13 13 14 14 11 9
33 32 32 29 28 27 27 29 29 24 25 28 28 23 22 24 20 16 1 3 5 9 13 17 19 22 22 20 19 15 13 12 10 9 8 8 11 13 10 13 14 12 12 13 14 14 10 13 12
33 32 30 31 25 25 27 29 31 30 28 26 28 30 27 22 18 18 7 6 7 11 15 18 20 22 21 17 13 9 8 3 7 9 9 10 9 10 11 12 12 11 11 13 14 13 13 11 12
33 30 28 26 22 21 22 22 31 24 25 24 28 25 19 19 20 15 10 8 11 13 16 19 21 22 18 17 14 12 10 9 5 2 5 3 7 9 9 10 11 11 12 10 10 12 12 12 13
38 24 27 25 20 24 29 18 24 21 24 24 23 21 20 21 17 10 10 12 14 16 18 20 22 20 17 13 11 10 8 6 4 4 4 7 7 10 10 9 10 12 10 9 10 10 11 12 11
29 28 27 21 20 20 27 21 26 23 26 20 22 21 18 19 12 9 12 15 17 19 21 22 21 18 16 13 9 6 5 2 4 4 5 7 7 7 10 9 8 8 9 9 9 9 10 9 9
29 26 18 19 20 26 19 21 24 23 22 22 23 22 15 10 13 13 15 15 21 23 23 22 20 18 15 12 9 7 5 4 5 6 4 5 5 7 8 7 6 6 7 7 9 10 9 8 9
34 31 17 31 14 20 24 26 22 22 24 22 21 10 9 11 13 14 16 17 21 23 22 21 19 17 15 12 9 7 5 7 6 3 3 3 4 5 7 7 5 5 7 9 9 8 6 7 7
39 27 35 24 23 20 17 17 18 18 17 13 15 17 15 13 14 16 18 17 22 23 21 20 18 16 14 11 8 6 5 3 3 2 2 3 3 7 6 6 6 8 8 7 7 5 4 3 5
33 28 23 21 28 24 16 14 8 6 10 15 15 15 17 15 15 17 18 17 22 22 20 18 16 15 13 11 8 8 6 4 3 1 2 4 5 6 6 6 6 8 8 7 6 5 5 6 6
25 24 31 21 20 17 16 10 9 6 8 12 15 16 19 18 17 18 18 21 22 22 20 17 15 14 13 11 8 6 5 4 1 0 2 4 6 7 8 6 7 6 7 6 5 5 6 6 5
31 29 30 17 26 18 9 7 6 3 13 10 13 17 18 18 19 19 19 18 22 21 19 17 15 14 13 10 8 6 4 1 3 2 4 4 7 9 8 8 6 6 8 6 5 6 8 6 4
Wind_Direction
177 162 183 223 233 233 243 246 265 143 217 131 307 283 330 344 325 359 118 138 148 155 166 182 185 182 184 184 185 185 186 186 191 194 200 208 219 229 233 245 252 248 252 264 269 277 276 280 284
178 182 218 262 253 223 229 215 156 234 12 318 278 266 247 304 2 346 146 159 158 161 168 179 189 188 189 189 191 195 196 197 199 207 211 220 229 233 238 247 252 257 262 268 267 264 266 255 254
209 199 262 226 236 264 346 193 244 102 237 263 270 175 324 320 72 340 75 164 167 170 175 182 193 192 194 196 199 202 203 205 210 215 222 231 242 250 249 248 250 259 268 270 268 266 262 261 249
194 212 252 259 255 238 302 210 91 261 210 215 288 289 153 64 20 18 51 174 177 180 181 192 199 195 199 202 205 206 209 212 217 222 225 234 246 256 259 253 253 258 265 269 270 266 263 260 256
230 259 246 239 251 271 246 281 329 305 278 277 39 280 201 94 75 52 122 185 200 194 191 193 209 201 203 207 208 211 212 217 222 226 232 238 249 263 260 255 256 259 268 272 271 264 261 264 264
224 235 249 247 244 250 232 258 261 270 270 260 206 265 291 125 73 19 150 197 220 206 201 195 215 213 208 211 213 215 216 220 225 231 239 246 258 268 260 261 258 261 268 273 279 281 273 269 264
238 240 246 264 276 284 241 251 263 265 276 264 163 282 282 140 98 38 303 229 221 218 205 206 204 217 216 215 218 219 220 223 228 234 243 251 257 264 262 266 259 258 262 268 274 275 274 271 267
239 251 265 254 260 265 276 308 253 291 285 52 292 271 276 108 51 302 259 253 228 225 216 214 210 211 210 214 222 223 223 226 232 236 244 252 257 261 261 256 259 260 255 261 272 270 270 268 265
236 252 250 251 257 265 263 214 254 250 288 293 285 277 272 291 298 285 282 270 263 241 220 217 215 213 211 209 220 227 226 228 232 237 246 254 258 263 257 247 237 233 245 263 261 262 263 259 260
233 238 244 252 263 278 291 256 249 256 230 259 271 275 267 247 271 280 288 280 275 240 232 221 217 213 210 209 210 209 215 221 226 231 237 238 247 258 260 265 234 252 269 269 266 261 256 247 250
233 239 250 254 257 271 272 268 278 287 279 276 289 285 311 296 290 279 274 275 280 273 264 226 209 208 212 209 203 205 214 215 221 228 232 239 252 259 255 256 242 241 258 251 261 241 239 241 243
241 242 247 258 269 279 274 268 272 270 279 289 289 284 290 291 286 291 291 289 284 282 251 237 208 199 209 213 207 205 207 210 213 221 226 238 245 246 248 257 263 243 252 252 263 265 259 261 264
239 244 253 258 262 270 271 276 279 273 272 286 288 286 280 273 281 293 291 288 283 277 268 250 205 196 200 208 207 206 205 207 213 219 227 232 245 246 250 254 261 261 267 259 259 255 272 259 243
248 253 254 258 262 267 266 267 261 261 269 266 273 273 272 277 288 294 295 292 286 276 269 248 204 194 194 202 214 198 200 202 206 219 224 228 239 243 247 249 248 259 261 253 258 255 252 258 243
259 258 259 256 260 260 259 262 261 266 265 270 270 269 265 271 288 291 293 285 276 269 264 241 214 193 192 202 210 202 202 204 204 215 219 227 235 242 246 257 257 253 258 253 251 252 254 258 256
249 254 258 251 251 251 247 260 266 269 266 266 262 272 279 281 286 301 297 284 268 264 258 233 217 195 198 202 203 203 204 198 210 214 221 224 234 242 250 252 255 261 259 253 245 239 244 243 248
237 244 240 253 249 248 240 255 256 266 262 264 264 274 275 275 289 296 290 280 262 253 248 234 204 198 197 198 200 203 201 200 206 215 224 232 235 244 246 252 252 255 251 242 239 236 237 242 241
230 236 245 255 254 247 248 260 255 263 266 269 272 260 272 278 287 292 293 271 281 271 249 197 192 198 184 190 193 196 195 207 213 220 231 235 240 250 251 249 250 254 239 240 234 230 240 243 237
241 242 247 248 246 241 258 263 256 258 264 262 259 254 264 281 284 288 277 275 266 222 193 189 188 177 175 180 188 191 199 204 215 226 232 240 249 257 245 248 254 248 234 229 226 228 234 233 223
244 250 253 260 261 258 253 257 269 255 261 268 272 267 264 274 277 278 242 189 209 194 185 180 174 167 177 181 195 194 201 206 216 226 225 243 255 253 242 253 253 246 233 228 226 223 227 234 212
234 234 243 251 258 259 262 267 261 260 263 263 270 273 272 274 266 266 145 165 176 183 176 169 163 167 177 177 176 170 173 206 214 221 233 224 243 244 243 247 248 242 234 225 221 224 224 225 209
235 229 240 251 257 257 251 265 257 263 264 259 262 259 256 253 263 243 141 162 180 171 166 156 159 165 169 167 172 183 201 217 196 249 282 251 248 250 245 246 233 231 226 219 224 228 219 215 207
242 234 236 238 250 259 254 258 270 275 268 265 253 259 261 254 255 181 165 167 168 161 157 154 157 163 161 177 174 182 228 190 236 247 252 257 258 243 240 228 225 223 228 226 230 218 207 207 209
240 234 243 238 238 245 246 250 265 263 265 260 256 258 257 241 219 142 154 157 155 155 151 154 157 158 162 166 170 200 163 235 274 241 302 289 258 233 220 217 211 210 221 219 210 203 194 205 209
224 224 225 231 230 245 248 245 261 269 271 262 257 255 255 231 144 156 157 161 158 153 152 155 160 158 160 163 165 169 177 205 245 270 292 271 241 208 203 199 200 198 190 190 183 186 189 194 204
223 213 217 219 218 239 232 243 256 266 250 255 241 214 234 151 155 159 164 155 157 154 155 161 161 158 162 164 166 170 182 216 242 248 270 258 223 188 173 186 172 176 176 168 167 177 199 204 209
215 215 220 247 231 243 255 240 229 248 248 242 238 234 223 169 158 162 158 159 155 156 161 160 160 160 164 166 164 176 193 243 303 317 245 209 187 167 169 171 172 182 167 156 164 173 181 178 156
232 210 212 227 240 248 231 253 257 216 224 217 225 210 183 166 166 162 156 155 157 157 159 159 164 161 167 169 170 178 193 221 257 5 208 179 176 169 155 157 173 178 167 163 174 168 148 151 152
214 211 210 220 229 234 252 258 229 260 254 265 198 186 172 165 167 159 156 157 156 157 158 160 164 165 165 170 174 158 176 211 24 82 183 170 162 168 160 156 159 153 156 156 157 140 142 144 181
213 217 201 219 216 238 292 200 97 229 225 198 166 163 153 164 163 160 157 159 156 161 157 162 164 165 167 171 169 173 175 177 78 174 110 155 167 179 167 164 151 142 129 140 146 138 142 158 164